Regional Weather Roundup
Issued by NWS

Home | Current Version | Previous Version | Text Only | Print | Product List | Glossary On
Versions: 1 2 3 4 5 6 7 8 9 10 11 12 13 14 15 16 17 18 19 20 21 22 23 24 25 26 27 28 29 30 31 32 33 34 35 36 37 38 39 40 41 42 43 44 45 46 47 48 49 50
000
ASUS44 KMEG 121100
RWRTN
TENNESSEE HOURLY STATE WEATHER ROUNDUP
NATIONAL WEATHER SERVICE MEMPHIS TN
600 AM CDT SAT JUL 12 2014

TNZ002-004-019-021-049-052-054-088>092-121200-
WEST TENNESSEE

CITY           SKY/WX    TMP DP  RH WIND       PRES   REMARKS
MEMPHIS INTL   PTCLDY    75  71  87 CALM      30.16R
NWS MEMPHIS      N/A     71 N/A N/A MISG        N/A
JACKSON        CLEAR     66  64  93 CALM      30.16R FOG
DYERSBURG      CLEAR     70  61  73 CALM      30.16R
UNION CITY     CLEAR     66  66 100 CALM      30.14R
PARIS          CLEAR     64  63  94 CALM      30.17R
LEXINGTON      CLOUDY    64  64 100 CALM      30.16R VSB 1/4
SAVANNAH       CLEAR     64  64 100 CALM      30.17R
$$

TNZ008-025-027-028-033-062-065-066-121200-
NORTH MIDDLE TENNESSEE

CITY           SKY/WX    TMP DP  RH WIND       PRES   REMARKS
NASHVILLE      PTCLDY    67  65  93 CALM      30.17S
CLARKSVILLE    CLEAR     66  64  93 CALM      30.15F FOG
COOKEVILLE     CLEAR     61  61 100 CALM      30.19S
CROSSVILLE     CLEAR     64  60  87 CALM      30.24R FOG
$$

TNZ061-075-076-078-094-096-097-121200-
SOUTH MIDDLE TENNESSEE

CITY           SKY/WX    TMP DP  RH WIND       PRES   REMARKS
FAYETTEVILLE   CLEAR     66  64  94 MISG      30.18R
TULLAHOMA      CLEAR     63  61  94 CALM      30.20R
WINCHESTER     CLEAR     64  63  94 CALM      30.19R
MCMINNVILLE    CLEAR     63  63 100 CALM      30.20R
COLUMBIA       CLEAR     66  66 100 CALM      30.16S
SHELBYVILLE    CLEAR     64  63  94 SE3       30.19R
$$

TNZ017-018-042-046-047-121200-
NORTHEAST TENNESSEE

CITY           SKY/WX    TMP DP  RH WIND       PRES   REMARKS
TRI CITIES     PTCLDY    64  61  90 CALM      30.24R
ELIZABETHTON   SUNNY     64  63  94 NE3       30.25S
$$

TNZ012-013-036-069-073-074-121200-
CENTRAL EAST TENNESSEE

CITY           SKY/WX    TMP DP  RH WIND       PRES   REMARKS
KNOXVILLE      PTCLDY    69  66  90 CALM      30.19R
OAK RIDGE      CLEAR     66  63  90 CALM      30.22R
GATLINBURG     SUNNY     66  64  94 CALM      30.20S
$$

TNZ083-085-099-121200-
SOUTHEAST TENNESSEE

CITY           SKY/WX    TMP DP  RH WIND       PRES   REMARKS
CHATTANOOGA    PTCLDY    72  67  84 MISG      30.19S
$$

SKY/WX REPORTED AS FAIR MEANS FEW OR NO CLOUDS BELOW
12 THOUSAND FEET.




USA.gov is the U.S. government's official web portal to all federal, state and local government web resources and services.